CZ-6A DEB, 56273

Orbit data source: Space-Track

CZ-6A DEB, 56273 is space debris in SSO originally from a launch on Fri, 11 Nov 2022 UTC launched from the Taiyaun Space Center, China (TSC). Debris objects in space refer to the collection of defunct objects orbiting the Earth. Examples of debris include non-operational satellites, rocket bodies, and fragments generated from explosions, collisions, or faulty payload assembly.

Loading next visibility...
Identifier
56273, 2022-151ACR
Orbit
SSO
Country
Flag of CNCN / PRC
Related business
Manufacturer
SAST
Mission
Spacecraft
Bus & Motor
Unknown
Mass
Unknown
Launch date (UTC)
2022-11-11 (3 years ago)
Launch vehicle
Unknown
Launch site
Taiyaun Space Center, China (TSC)
Object type
Payload
Rocket body
Debris
Shape & HBR
Unknown shape, 0.1 m
Radar Cross Section
Small (<0.1 m²)

Expand to show TLE details & history
Last TLE update: 16 hours ago

TLE from 16 hours ago
0 CZ-6A DEB
1 56273U 22151ACR 26129.85512270  .00003844  00000-0  70982-3 0  9992
2 56273  98.4837 173.2778 0125023  26.4451 334.3057 14.61108336169806
Epoch: 2026-05-09T20:31Z
TLE epoch observation values (Epoch: 2026-05-09T20:31:22.601Z)
Latitude
-0.00002°
Longitude
-2.23294°
Altitude
613.145 km
Speed
7.595 km/s
True Right ascension
11h 33m 06s
True Declination
0° 00' 00"
Sunlit
Object was in full shadow at epoch
Visualization orbit readout
Latitude
Unknown
Longitude
Unknown
Altitude
Unknown
Speed
Unknown
Apparent Right ascension
Unknown
Apparent Declination
Unknown
Sunlit
N/A
Visualization observer readout
Local Sidereal Time
20:41:38
Azimuth
Unknown
Elevation
Unknown
Doppler factor
Unknown
Orbital elements
Apogee altitude
775.016 km
Perigee altitude
598.363 km
Semi-major axis
7,064.827 km
Eccentricity
0.0125
Inclination
98.4837°
RAAN
173.2778°
Arg. of periapsis
26.4451°
True anomaly
333.67569°
Mean anomaly
334.3057°
Eccentric anomaly
333.99159°
Mean motion
3.65503 °/min
Orbital period
98.49 mins
BSTAR
0.00070982
Loading maneuver chart data...
Computing Atmospheric mass density...
Loading historical data...
Loading historical data...
Loading historical data...
Loading historical data...
Loading historical data...
Loading historical data...
Loading historical data...

Documentation

Showing up to 5 results
|